Погода в Ходейде

Йемен     14°47′04″N   42°58′35″E
темп.,
°C
ветер,
м/с
пор.,
м/с
влажн.,
%
обл.,
%
осадки,
мм/ч
давл.,
гПа
погр.,
м
15 апреля, чт
чт1500:00+27ссз33763 0.0 101091
03:00+26ссз238026 0.0 100988
06:00+25ссз11824 0.0 101146
09:00+29юз336635 0.0 1012904
12:00+30юз656532 0.0 1011923
15:00+30зюз54604 0.0 1008846
18:00+30юз11595 0.0 1007331
21:00+28сз11695 0.0 100821
16 апреля, пт
пт1600:00+28сз5572100 0.0 1009300
03:00+27сз2379100 0.0 1008104
06:00+27юз33815 0.0 100988
09:00+30юз436613 0.0 1010754
12:00+31ююз756165 0.0 1009745
15:00+31ююз775998 0.0 1006555
18:00+30ю46656 0.0 1006320
21:00+30ю2264100 0.0 100846
17 апреля, сб
сб1700:00+28з457599 0.0 1009221
03:00+27зюз3481100 0.0 1008283
06:00+27з358268 0.0 1009186
09:00+30ююз5464100 0.0 1011864
12:00+31ююз7661100 0.0 1010716
15:00+31ююз7859100 0.0 1007466
18:00+28ю6967100 0.0 1007330
21:00+29ю596745 0.0 1008258
18 апреля, вс
вс1800:00+28ююз8117621 0.0 1009472
03:00+27ю71072100 0.0 1009323
06:00+27ю7107532 0.0 1011348
09:00+30ю995697 0.0 1013628
12:00+33ю101144100 0.0 1011661
15:00+32ююз111351100 0.0 1008507
18:00+29ю9136797 0.0 1009392
21:00+28ююв81371100 0.0 1011541
19 апреля, пн
пн1900:00+28ю8126681 0.0 1011573
03:00+27ю10156797 0.0 1010494
06:00+27ююв696343 0.0 1011221
09:00+31ю78420 0.0 1013668
12:00+32ююз97425 0.0 1011677
15:00+32ююз78530 0.0 1009583
18:00+29ю810660 0.0 1008381
21:00+29ю610725 0.0 1010250